MONITOR-4 (RS57S)

Last updated on Thu Oct 16 2025 00:03:08 GMT+0000 (Coordinated Universal Time)

1 57182U 23091S 25288.63862844 .00013713 00000+0 60784-3 0 9996 2 57182 97.5454 345.8014 0012299 235.4361 124.5715 15.21665172127024
UTC large
Height (km)
Speed (km/s)
/
Latitude / Longitude
Inclination (degrees)
Orbital Period (minutes)
Azimuth
Elevation
Range (km)
Doppler Factor

Next 0 passes for location: London (51.5072 / 0.1276)

Sorry there are no passes over London.